Whiteman AFB, MO

10:51 PM CST on February 22, 2017 (GMT -0600)
Whiteman Air Force Base

Weather History for KSZL - March, 2013

Change the Weather History Date:

Saturday, March 2, 2013

  Actual Average Record
Temperature  
Mean Temperature 22 °F -  
Max Temperature 32 °F 45 °F 73 °F (2008)
Min Temperature 13 °F 27 °F 2 °F (2014)
Degree Days  
Heating Degree Days 42    
Moisture  
Dew Point 18 °F    
Average Humidity 77    
Maximum Humidity 100    
Minimum Humidity 55    
Precipitation  
Precipitation 0.00 in - - ()
Sea Level Pressure  
Sea Level Pressure 30.31 in    
Wind  
Wind Speed 9 mph (North)    
Max Wind Speed 13 mph    
Max Gust Speed -    
Visibility 10 miles    
Events      
Averages and records for this station are not official NWS values.
T = Trace of Precipitation, MM = Missing Value Source: NWS Daily Summary

Daily Weather History Graph

Daily Weather History Graph

Search for Another Location

Airport or City:

Trip Planner

Search our weather history database for the weather conditions in past years. The results will help you decide how hot, cold, wet, or windy it might be!

Date:

Astronomy

Mar. 02, 2013 Rise Set
Actual Time 6:44 AM CST 6:08 PM CST
Civil Twilight 6:18 AM CST 6:35 PM CST
Nautical Twilight 5:47 AM CST 7:05 PM CST
Astronomical Twilight 5:16 AM CST 7:36 PM CST
Moon 11:44 PM CST (3/2) 9:16 AM CST (3/2)
Length of Visible Light 12h 17m
Length of Day
11h 23m
Waning Gibbous, 74% of the Moon is Illuminated
Mar 2
Waning Gibbous
Mar 4
Last Quarter
Mar 11
New
Mar 19
First Quarter
Mar 27
Full

Hourly Weather History & Observations

Time (CST) Temp. Windchill Dew Point Humidity Pressure Visibility Wind Dir Wind Speed Gust Speed Precip Events Conditions
12:08 AM 24.8 °F 16.1 °F 24.8 °F 100% 30.28 in 10.0 mi North 8.1 mph - N/A   Overcast
12:12 AM 24.8 °F 15.3 °F 24.8 °F 100% 30.28 in 10.0 mi NNW 9.2 mph - N/A   Overcast
12:58 AM 25.7 °F 16.4 °F 24.8 °F 96% 30.32 in 10.0 mi North 9.2 mph - N/A   Overcast
1:43 AM 24.8 °F 14.6 °F 23.0 °F 93% 30.28 in 10.0 mi North 10.4 mph - N/A   Overcast
1:58 AM 25.3 °F 16.0 °F 22.5 °F 89% 30.32 in 10.0 mi North 9.2 mph - N/A   Overcast
2:58 AM 24.8 °F 13.4 °F 19.4 °F 80% 30.31 in 10.0 mi North 12.7 mph - N/A   Overcast
3:58 AM 24.1 °F 12.5 °F 17.2 °F 75% 30.31 in 10.0 mi North 12.7 mph - N/A   Overcast
4:33 AM 23.0 °F 12.4 °F 15.8 °F 74% 30.28 in 10.0 mi NNW 10.4 mph - N/A   Overcast
5:04 AM 23.0 °F 12.4 °F 15.8 °F 74% 30.29 in 10.0 mi North 10.4 mph - N/A   Overcast
6:10 AM 23.0 °F 11.1 °F 15.8 °F 74% 30.30 in 10.0 mi North 12.7 mph - N/A   Overcast
6:58 AM 23.0 °F 11.1 °F 15.8 °F 74% 30.36 in 10.0 mi North 12.7 mph - N/A   Overcast
7:03 AM 23.0 °F 12.4 °F 15.8 °F 74% 30.36 in 10.0 mi North 10.4 mph - N/A   Overcast
7:58 AM 23.4 °F 12.2 °F 16.2 °F 74% 30.38 in 10.0 mi North 11.5 mph - N/A   Overcast
8:59 AM 24.4 °F 13.5 °F 16.7 °F 72% 30.38 in 10.0 mi NNW 11.5 mph - N/A   Overcast
9:58 AM 24.8 °F 13.4 °F 15.8 °F 69% 30.38 in 10.0 mi North 12.7 mph - N/A   Overcast
10:58 AM 25.9 °F 14.8 °F 16.0 °F 66% 30.38 in 10.0 mi NNE 12.7 mph - N/A   Overcast
11:58 AM 28.0 °F 20.0 °F 17.4 °F 64% 30.36 in 10.0 mi North 8.1 mph - N/A   Scattered Clouds
12:10 PM 28.4 °F 22.2 °F 17.6 °F 64% 30.32 in 10.0 mi NNE 5.8 mph - N/A   Mostly Cloudy
1:55 PM 30.2 °F 24.3 °F 17.6 °F 60% 30.29 in 10.0 mi North 5.8 mph - N/A   Clear
2:55 PM 32.0 °F 28.7 °F 17.6 °F 55% 30.27 in 10.0 mi NW 3.5 mph - N/A   Clear
3:58 PM 30.0 °F 23.2 °F 16.7 °F 58% 30.31 in 10.0 mi NW 6.9 mph - N/A   Clear
4:58 PM 28.9 °F - 16.9 °F 61% 30.26 in 10.0 mi Calm Calm - N/A   Clear
5:55 PM 28.4 °F - 17.6 °F 64% 30.26 in 10.0 mi ESE 2.3 mph - N/A   Clear
7:58 PM 19.6 °F - 16.0 °F 86% 30.29 in 10.0 mi Calm Calm - N/A   Clear
8:58 PM 17.2 °F - 14.4 °F 88% 30.28 in 10.0 mi Calm Calm - N/A   Clear
9:58 PM 13.8 °F - 12.2 °F 93% 30.27 in 10.0 mi East 2.3 mph - N/A   Overcast
10:58 PM 16.2 °F - 14.7 °F 94% 30.27 in 10.0 mi Calm Calm - N/A   Overcast
11:58 PM 19.2 °F - 17.1 °F 91% 30.25 in 10.0 mi SSW 2.3 mph - N/A   Overcast